Погода в Пудоже

Погода в Пудоже : погода сейчас, прогноз погоды и архив. Всё, что Вы хотите узнать о погоде в Пудоже!

Хотите узнать прогноз погоды в Пудоже? Тогда Вам сюда: Погода в Пудоже

Поиск расширенной информации на нашем сайте:

Другие новости

Новости СМИ2

Главная страница сайта

Новости сайта

03.07.2017

Напоминаем, что на нашем специализированном сайте Метеоцентр.Азия вы можете получить высокодетализированные автоматические прогнозы погоды по пунктам России, СНГ и мира в авиационном формате (включающие направление и скорость ветра, видимость, явления погоды, количество и форму облачности, нижнюю и верхнюю границу облачности).

Рекомендуем: выгодно снять: продажа офиса БЦ Новоспасский Двор у метро Пролетарская на сайте бизнес центра

Погода в Пудоже - сегодня

Время (UTC), дата Ветер
(°,м/с) 
Видим.   Явления Облачность Т
(°С)
Тd
(°С)
f(%) Тe
(°С)
Pmin
(гПа)
dP
(гПа)
Po
(мм)
O2
(г/м3)
Тmin Tmax R s Состояние
почвы
00 19.11.17 200 (Ю) 4000 м  слаб. ливневой дождь  10/10 400 м кучево-дожд. 
[Cb cap]
+2.1 +1.5 96 +1  1004.9  0.9  749  299           
03 19.11.17 210 (ЮЗ) 4000 м  слаб. ливневой дождь  10/10 330 м кучево-дожд. 
[Cb cap]
+2 +1.5 96 +3  1005.3  0.4  749  300  +2       
06 19.11.17 180 (Ю) 20000 м  {ливн. осадки}  10/10 360 м кучево-дожд. 
[Cb cap]
+2 +1.6 97 +3  1006.2  0.9  750  300  +1.9    мокрый или
старый снег
50-90% 
09 19.11.17 тихо ()   20000 м    10/10 270 м кучево-дожд. 
[Cb cap]
+1.7 +1.3 97 +2  1007.3  1.2  751  301           
12 19.11.17 150 (ЮВ) 10 км  слаб. дождь  10/10 210 м 
[Frnb]
+1.6 +1 96 +2  1007.9  0.5  751  301           
15 19.11.17 130 (ЮВ) 10 км    10/10 270 м 
[Ns]
+0.5 +0 96 +1  1008.5  0.5  752  302      0.4     
18 19.11.17 100 (В) 10 км    8/0 средняя, верхняя 
[Ac trans|Ci fib]
-1.2 -1.5 98 -1  1008.2  -0.3  752  304    +2  0.4     
21 19.11.17 080 (В) 10 км    9/9 300 м кучево-дожд. 
[Cb cap]
-0.6 -1.1 96 1008.3  0.1  752  304           
00 20.11.17 100 (В) 10 км    9/9 330 м кучево-дожд. 
[Cb cap]
-0.5 -1.4 94 1007.3  -0.9  751  303           
03 20.11.17 090 (В) 4000 м  слаб. ливневой снег  10/10 270 м кучево-дожд. 
[Cb cap]
-0.6 -1.3 95 -1  1006.3  -1  750  303  -1.2    0.2     
06 20.11.17 080 (В) 20000 м  {ливн. осадки}  10/10 300 м кучево-дожд. 
[Cb cap]
-0.7 -1.2 96 -2  1005.4  -0.9  750  303  -1.2    равномерный
сухой снег
100% 
09 20.11.17 500 () 10 км  слаб. снег  10/10 270 м 
[Frnb|Ns]
-0.6 -1 97 -1  1005.6  -0.2  750  303           
12 20.11.17 тихо ()   10 км  слаб. снег  10/10 270 м 
[Frnb|Ns]
-0.5 -1.1 96 -1  1006.4  0.8  750  303           
15 20.11.17 тихо ()   4000 м  слаб. снег  10/0 средняя 
[As op]
-1.7 -2 98 -2  1008  1.5  751  305         
18 20.11.17 тихо ()   10 км  {снег}  10/0 средняя 
[As op]
-1.5 -1.8 98 -2  1009.6  1.6  753  305    +0     
21 20.11.17 тихо ()   10 км  {снег}  10/10 480 м 
[Ns]
-1.2 -1.4 99 -1  1011  1.4  754  305           
00 21.11.17 тихо ()   10 км  {снег}  6/0 средняя 
[Ac trans]
-2.5 -2.7 99 -3  1012.1  1.1  755  307           
03 21.11.17 тихо ()   10 км    8/0 средняя 
[Ac trans]
-3 -3.3 98 -3  1012.6  0.5  755  308  -3.8    0.2     
06 21.11.17 070 (В) 20000 м    9/4 600 м кучево-дожд., средняя 
[Cb cap|Ac trans]
-1.5 -1.7 99 -1  1013.1  0.5  755  306  -3.8    0.2  равномерный
сухой снег
100% 
09 21.11.17 070 (В) 10 км  слаб. ливневой снег  9/9 270 м кучево-дожд. 
[Cb cap]
-1.3 -1.7 97 -2  1014.1  0.9  756  306           
12 21.11.17 070 (В) 10 км  слаб. ливневой снег  10/10 270 м кучево-дожд. 
[Cb cap]
-1.8 -2.3 96 -3  1014  0.1  756  307           
15 21.11.17 070 (В) 4000 м  слаб. ливневой снег  10/10 270 м кучево-дожд. 
[Cb cap]
-2.8 -3.4 96 -4  1014.7  0.7  756  308      0.3     
18 21.11.17 070 (В) 10 км  {ливн. осадки}  10/10 270 м кучево-дожд. 
[Cb cap]
-4 -4.9 93 -5  1014.7  0.1  756  310    -1.3  0.3     
21 21.11.17 040 (СВ) 10 км    10/10 300 м кучево-дожд. 
[Cb cap]
-4.7 -5.9 91 -6  1014.8  0.1  756  311           
00 22.11.17 030 (СВ) 10 км    10/10 700 м кучево-дожд. 
[Cb cap]
-5 -6.3 91 -6  1014.4  -0.4  756  311           
Время (UTC), дата Ветер
(°,м/с) 
Видим.   Явления Облачность Т
(°С)
Тd
(°С)
f(%) Тe
(°С)
Pmin
(гПа)
dP
(гПа)
Po
(мм)
O2
(г/м3)
Тmin Tmax R s Состояние
почвы

Для получения пояснительной информации подведите курсор к названию столбца.

ПОГОДА в Пудоже - архив

Всё, что Вы хотите узнать о погоде в Пудоже - удобно и подробно!

Выберите нужную дату (начиная с 1 января 2015* года) и нажмите кнопку "Найти".
Будут отображены архивные сводки погоды по пункту Пудож, начиная с указанной даты.


Отображать данные в формате CSV (для использования в таблицах Excel)


Внимание! Наш архив погоды предназначен исключительно для личного некоммерческого использования в познавательных целях. Если Вам необходимы официальные справки о состоянии погоды (для производственных, юридических, коммерческих и т.п. целей), обращайтесь в органы Росгидромета.

*Примечание: данная дата относится к архиву по метеостанциям СССР (Россия, СНГ, Балтия).
Архив по метеостанциям Зарубежной Европы и Азии (кроме Китая) хранится 10 дней, по другим регионам земного шара (Китай, Африка, Америка, Австралия, Океания) - 1 день.

Пудож - район местоположения метеостанции


Название, широта, долгота, высота метеостанции:
Пудож 61.8°ш. 36.5°д. 44 м над ур. моря [Российская Федерация]

Дополнительная информация

В oтличие oт бoльшинства пoгoдных сайтoв мы публикуем пoдрoбную метеoинфoрмацию в детальнoм прoфессиoнальнoм фoрмате.

Характеристики температуры и влажнoсти вoздуха измеряются на высoте 2 м в тени вдали oт зданий и деревьев.
Скoрoсть ветра измеряется на высoте 10 м (на урoвне рoста челoвека скoрoсть ветра ниже в 1.5-2 раза). Если метеoстанция нахoдится в гoрoде или в лесу, тo скoрoсть ветра занижена на 2-4 м/с пo сравнению с oткрытым местoм. Скoрoсть ветра над акватoриями крупных рек и oзёр, а также на вершинах хoлмoв на 2-5 м/с выше, чем в oбычных услoвиях.
Атмoсфернoе давление в разных тoчках местнoсти мoжет значительнo oтличаться oт давления на метеoстанции, в зависимoсти oт услoвий рельефа (при пoдъёме на 10 м давление пoнижается примернo на 1 мм рт.ст.).